Location: Unspecified
(0.0000°N, 0.0000°E)
Time: 13:50:41
(UTC+00:00)

Envisat - Pass Details

Date: 14 April 2021
Orbit: 764 x 766 km, 98.1° (Epoch: 16 April)

Event Time Altitude Azimuth Distance (km) Brightness Sun altitude
Rises 04:10:59 0° 43° (NE) 3,216 7.0 -26.9°
Reaches altitude 10° 04:14:05 10° 64° (ENE) 2,294 6.4 -26.2°
Maximum altitude 04:17:14 17° 103° (ESE) 1,873 5.8 -25.4°
Drops below altitude 10° 04:20:24 10° 141° (SE) 2,300 5.8 -24.6°
Sets 04:23:29 0° 161° (SSE) 3,229 6.3 -23.9°
